Location: ??????
(38.3184°N, 23.6932°E)
Time: 00:07:20
(UTC+00:00)

deb Kosmos- 1980 - Visible Passes

Search period start: 11 August 2022 00:00
Search period end: 21 August 2022 00:00
Orbit: 835 x 855 km, 71.0° (Epoch: 10 August)

Date Brightness Start Highest point End Pass type
(mag) Time Alt. Az. Time Alt. Az. Time Alt. Az.
11 Aug ? 18:25:21 10° NNW 18:30:52 60° WSW 18:36:22 10° S visible
12 Aug ? 18:11:19 10° NNW 18:16:52 63° WSW 18:22:22 10° S visible
13 Aug ? 17:57:17 10° NNW 18:02:50 65° WSW 18:08:22 10° S visible
14 Aug ? 17:43:14 10° NNW 17:48:49 67° WSW 17:54:23 10° S visible
